Time,TemperatureF,DewpointF,PressureIn,WindDirection,WindDirectionDegrees,WindSpeedMPH,WindSpeedGustMPH,Humidity,HourlyPrecipIn,Conditions,Clouds,dailyrainin,SoftwareType,DateUTC
2013-07-06 00:12:00,71.0,60.0,-100.00,SE,145,4.0,10.0,67,0.00,,,-99.99,,2013-07-06 05:12:00,
2013-07-06 00:22:00,71.0,60.0,-100.00,SSE,150,5.0,10.0,67,0.00,,,-99.99,,2013-07-06 05:22:00,
2013-07-06 00:33:00,71.0,60.0,-100.00,South,175,6.0,11.0,67,0.00,,,-99.99,,2013-07-06 05:33:00,
2013-07-06 00:42:00,71.0,60.0,-100.00,South,175,6.0,12.0,67,0.00,,,-99.99,,2013-07-06 05:42:00,
2013-07-06 00:53:00,71.0,60.0,-100.00,SE,140,6.0,11.0,67,0.00,,,-99.99,,2013-07-06 05:53:00,
2013-07-06 01:02:00,71.0,60.0,-100.00,SE,140,6.0,11.0,67,0.00,,,-99.99,,2013-07-06 06:02:00,
2013-07-06 01:12:00,71.0,60.0,-100.00,SSE,165,6.0,11.0,67,0.00,,,-99.99,,2013-07-06 06:12:00,
2013-07-06 01:22:00,71.0,60.0,-100.00,SE,140,6.0,12.0,67,0.00,,,-99.99,,2013-07-06 06:22:00,
2013-07-06 01:34:00,70.0,60.0,-100.00,SSE,150,6.0,11.0,69,0.00,,,-99.99,,2013-07-06 06:34:00,
2013-07-06 01:43:00,70.0,60.0,-100.00,SE,135,6.0,12.0,69,0.00,,,-99.99,,2013-07-06 06:43:00,
2013-07-06 02:02:00,70.0,60.0,-100.00,SSE,155,6.0,11.0,69,0.00,,,-99.99,,2013-07-06 07:02:00,
2013-07-06 02:12:00,70.0,60.0,-100.00,SE,135,6.0,12.0,70,0.00,,,-99.99,,2013-07-06 07:12:00,
2013-07-06 02:33:00,69.0,59.0,-100.00,SE,145,6.0,11.0,70,0.00,,,-99.99,,2013-07-06 07:33:00,
2013-07-06 02:44:00,69.0,59.0,-100.00,SSE,155,6.0,11.0,70,0.00,,,-99.99,,2013-07-06 07:44:00,
2013-07-06 02:52:00,69.0,59.0,-100.00,SSE,150,5.0,12.0,70,0.00,,,-99.99,,2013-07-06 07:52:00,
2013-07-06 03:02:00,69.0,59.0,-100.00,SSE,150,6.0,11.0,71,0.00,,,-99.99,,2013-07-06 08:02:00,
2013-07-06 03:34:00,68.0,59.0,-100.00,SE,145,4.0,14.0,72,0.00,,,-99.99,,2013-07-06 08:34:00,
2013-07-06 03:43:00,68.0,59.0,-100.00,SE,140,7.0,12.0,72,0.00,,,-99.99,,2013-07-06 08:43:00,
2013-07-06 03:54:00,68.0,59.0,-100.00,SSE,150,6.0,12.0,72,0.00,,,-99.99,,2013-07-06 08:54:00,
2013-07-06 04:02:00,68.0,59.0,-100.00,SSE,150,6.0,11.0,71,0.00,,,-99.99,,2013-07-06 09:02:00,
2013-07-06 04:11:00,68.0,59.0,-100.00,SE,135,5.0,12.0,71,0.00,,,-99.99,,2013-07-06 09:11:00,
2013-07-06 04:33:00,68.0,58.0,-100.00,SSE,150,6.0,10.0,71,0.08,,,-99.99,,2013-07-06 09:33:00,
2013-07-06 04:43:00,67.0,58.0,-100.00,SSE,165,6.0,11.0,72,0.00,,,-99.99,,2013-07-06 09:43:00,
2013-07-06 04:52:00,67.0,58.0,-100.00,SSE,155,6.0,12.0,73,0.00,,,-99.99,,2013-07-06 09:52:00,
2013-07-06 05:11:00,66.0,58.0,-100.00,SE,140,6.0,11.0,74,0.00,,,-99.99,,2013-07-06 10:11:00,
2013-07-06 05:22:00,66.0,58.0,-100.00,SE,140,6.0,11.0,74,0.00,,,-99.99,,2013-07-06 10:22:00,
2013-07-06 05:33:00,66.0,58.0,-100.00,South,170,5.0,11.0,75,0.00,,,-99.99,,2013-07-06 10:33:00,
2013-07-06 05:53:00,66.0,58.0,-100.00,SSE,160,4.0,12.0,75,0.00,,,-99.99,,2013-07-06 10:53:00,
2013-07-06 06:11:00,65.0,58.0,-100.00,SSE,155,6.0,10.0,77,0.00,,,-99.99,,2013-07-06 11:11:00,
2013-07-06 06:22:00,65.0,58.0,-100.00,SSE,155,4.0,9.0,78,0.00,,,-99.99,,2013-07-06 11:22:00,
2013-07-06 06:33:00,65.0,58.0,-100.00,SE,130,5.0,10.0,79,0.00,,,-99.99,,2013-07-06 11:33:00,
2013-07-06 06:42:00,65.0,59.0,-100.00,SE,140,6.0,9.0,79,0.00,,,-99.99,,2013-07-06 11:42:00,
2013-07-06 06:53:00,65.0,59.0,-100.00,SE,140,6.0,9.0,79,0.00,,,-99.99,,2013-07-06 11:53:00,
2013-07-06 07:01:00,66.0,59.0,-100.00,SE,140,5.0,10.0,79,0.00,,,-99.99,,2013-07-06 12:01:00,
2013-07-06 07:12:00,67.0,60.0,-100.00,SE,135,5.0,9.0,78,0.00,,,-99.99,,2013-07-06 12:12:00,
2013-07-06 07:33:00,67.0,60.0,-100.00,South,170,4.0,12.0,76,0.00,,,-99.99,,2013-07-06 12:33:00,
2013-07-06 07:43:00,68.0,60.0,-100.00,SSE,165,6.0,11.0,75,0.00,,,-99.99,,2013-07-06 12:43:00,
2013-07-06 07:52:00,68.0,60.0,-100.00,SSE,150,6.0,12.0,75,0.00,,,-99.99,,2013-07-06 12:52:00,
2013-07-06 08:12:00,69.0,61.0,-100.00,South,180,6.0,13.0,74,0.00,,,-99.99,,2013-07-06 13:12:00,
2013-07-06 08:33:00,70.0,61.0,-100.00,SSE,160,5.0,12.0,72,0.00,,,-99.99,,2013-07-06 13:33:00,
2013-07-06 08:43:00,71.0,61.0,-100.00,SSW,200,6.0,12.0,70,0.00,,,-99.99,,2013-07-06 13:43:00,
2013-07-06 08:52:00,72.0,61.0,-100.00,South,190,6.0,11.0,67,0.00,,,-99.99,,2013-07-06 13:52:00,
2013-07-06 09:11:00,74.0,62.0,-100.00,South,175,5.0,12.0,65,0.00,,,-99.99,,2013-07-06 14:11:00,
2013-07-06 09:22:00,75.0,62.0,-100.00,South,190,5.0,10.0,63,0.00,,,-99.99,,2013-07-06 14:22:00,
2013-07-06 09:34:00,76.0,62.0,-100.00,South,180,6.0,11.0,61,0.00,,,-99.99,,2013-07-06 14:34:00,
2013-07-06 09:42:00,77.0,62.0,-100.00,SSE,155,9.0,13.0,59,0.00,,,-99.99,,2013-07-06 14:42:00,
2013-07-06 10:02:00,78.0,63.0,-100.00,SSE,160,4.0,12.0,59,0.00,,,-99.99,,2013-07-06 15:02:00,
2013-07-06 10:12:00,79.0,63.0,-100.00,South,180,6.0,11.0,57,0.00,,,-99.99,,2013-07-06 15:12:00,
2013-07-06 10:33:00,79.0,63.0,-100.00,South,175,6.0,12.0,56,0.00,,,-99.99,,2013-07-06 15:33:00,
2013-07-06 10:43:00,80.0,63.0,-100.00,South,185,7.0,16.0,56,0.00,,,-99.99,,2013-07-06 15:43:00,
2013-07-06 10:53:00,80.0,63.0,-100.00,SSW,195,9.0,12.0,56,0.00,,,-99.99,,2013-07-06 15:53:00,
2013-07-06 11:07:00,81.0,64.0,-100.00,SW,225,4.0,12.0,56,0.00,,,-99.99,,2013-07-06 16:07:00,
2013-07-06 11:43:00,84.0,65.0,-100.00,South,175,5.0,12.0,53,0.00,,,-99.99,,2013-07-06 16:43:00,
2013-07-06 11:52:00,84.0,64.0,-100.00,South,185,7.0,14.0,51,0.00,,,-99.99,,2013-07-06 16:52:00,
2013-07-06 12:31:00,85.0,64.0,-100.00,SSW,210,8.0,16.0,48,0.00,,,-99.99,,2013-07-06 17:31:00,
2013-07-06 12:43:00,86.0,64.0,-100.00,SSE,150,7.0,15.0,48,0.00,,,-99.99,,2013-07-06 17:43:00,
2013-07-06 13:44:00,87.0,64.0,-100.00,South,190,9.0,16.0,46,0.00,,,-99.99,,2013-07-06 18:44:00,
2013-07-06 13:53:00,88.0,65.0,-100.00,SSE,150,6.0,16.0,46,0.00,,,-99.99,,2013-07-06 18:53:00,
2013-07-06 14:11:00,88.0,64.0,-100.00,South,180,9.0,16.0,45,0.00,,,-99.99,,2013-07-06 19:11:00,
2013-07-06 14:22:00,89.0,65.0,-100.00,South,170,9.0,16.0,44,0.00,,,-99.99,,2013-07-06 19:22:00,
2013-07-06 14:43:00,89.0,65.0,-100.00,SE,145,7.0,16.0,44,0.00,,,-99.99,,2013-07-06 19:43:00,
2013-07-06 14:52:00,89.0,64.0,-100.00,SSW,200,7.0,16.0,43,0.00,,,-99.99,,2013-07-06 19:52:00,
2013-07-06 14:57:00,89.0,64.0,-100.00,SSE,155,8.0,16.0,43,0.00,,,-99.99,,2013-07-06 19:57:00,
2013-07-06 15:22:00,90.0,63.0,-100.00,South,175,9.0,17.0,41,0.00,,,-99.99,,2013-07-06 20:22:00,
2013-07-06 15:44:00,90.0,63.0,-100.00,South,180,6.0,17.0,41,0.00,,,-99.99,,2013-07-06 20:44:00,
2013-07-06 16:32:00,89.0,62.0,-100.00,South,185,9.0,17.0,39,0.00,,,-99.99,,2013-07-06 21:32:00,
2013-07-06 17:53:00,89.0,63.0,-100.00,South,180,4.0,13.0,41,0.00,,,-99.99,,2013-07-06 22:53:00,
2013-07-06 18:21:00,87.0,62.0,-100.00,South,175,4.0,14.0,42,0.00,,,-99.99,,2013-07-06 23:21:00,
2013-07-06 18:32:00,88.0,63.0,-100.00,SW,215,6.0,15.0,43,0.00,,,-99.99,,2013-07-06 23:32:00,
2013-07-06 18:45:00,88.0,63.0,-100.00,SW,215,6.0,15.0,43,0.00,,,-99.99,,2013-07-06 23:45:00,
2013-07-06 19:10:00,87.0,62.0,-100.00,SSW,195,7.0,13.0,43,0.00,,,-99.99,,2013-07-07 00:10:00,
2013-07-06 19:31:00,86.0,61.0,-100.00,South,170,5.0,14.0,43,0.00,,,-99.99,,2013-07-07 00:31:00,
2013-07-06 19:52:00,85.0,62.0,-100.00,SSW,200,6.0,9.0,45,0.00,,,-99.99,,2013-07-07 00:52:00,
2013-07-06 20:31:00,83.0,61.0,-100.00,SSE,165,4.0,9.0,47,0.00,,,-99.99,,2013-07-07 01:31:00,
2013-07-06 20:52:00,81.0,60.0,-100.00,South,185,5.0,11.0,49,0.00,,,-99.99,,2013-07-07 01:52:00,
2013-07-06 21:11:00,80.0,60.0,-100.00,South,185,6.0,12.0,50,0.00,,,-99.99,,2013-07-07 02:11:00,
2013-07-06 21:20:00,79.0,60.0,-100.00,South,180,6.0,11.0,51,0.00,,,-99.99,,2013-07-07 02:20:00,
2013-07-06 21:39:00,79.0,59.0,-100.00,South,180,4.0,9.0,51,0.00,,,-99.99,,2013-07-07 02:39:00,
2013-07-06 22:38:00,77.0,60.0,-100.00,South,190,6.0,10.0,55,0.00,,,-99.99,,2013-07-07 03:38:00,
2013-07-06 22:48:00,77.0,60.0,-100.00,South,170,6.0,12.0,55,0.00,,,-99.99,,2013-07-07 03:48:00,
2013-07-06 23:02:00,77.0,60.0,-100.00,South,180,6.0,12.0,56,0.00,,,-99.99,,2013-07-07 04:02:00,
2013-07-06 23:11:00,76.0,60.0,-100.00,SSE,165,4.0,10.0,58,0.00,,,-99.99,,2013-07-07 04:11:00,
2013-07-06 23:21:00,75.0,61.0,-100.00,South,180,4.0,9.0,61,0.00,,,-99.99,,2013-07-07 04:21:00,
2013-07-06 23:31:00,74.0,61.0,-100.00,SSE,160,4.0,7.0,63,0.00,,,-99.99,,2013-07-07 04:31:00,
2013-07-06 23:41:00,73.0,61.0,-100.00,South,175,4.0,7.0,67,0.00,,,-99.99,,2013-07-07 04:41:00,